User: anonymous   Login
Location: Cicognara
(44.9500°N, 10.4667°E)
Time: 05:58:26
(UTC+00:00)
Language:

Cosmos 1892 Rocket - Orbit

View from above orbital plane
View from above orbital plane
View from above satellite
View from above satellite

Ground track
Ground track

The orbit data is extracted from the following two-line orbital elements,

1 18422U 87088B   21260.69284309  .00000090  00000-0  81403-5 0  9990
2 18422  82.5139 161.0064 0019747   6.3489  25.2486 14.83088906832066
Epoch (UTC): 17 September 2021 16:37:41
Eccentricity: 0.0019747
inclination: 82.5139°
perigee height: 606 km
apogee height: 633 km
right ascension of ascending node: 161.0064°
argument of perigee: 6.3489°
revolutions per day: 14.83088906
mean anomaly at epoch: 25.2486°
orbit number at epoch: 83206

The dashed part of the orbit path shows where the satellite is in the earth's shadow,  

DLR